Mexico City Airport, Mexico

12:54 AM CDT on July 27, 2017 (GMT -0500)
Lic Benito Juarez International

Weather History for MMMX - April, 2013

Change the Weather History Date:

Tuesday, April 9, 2013

  Actual Average Record
Temperature  
Mean Temperature 70 °F -  
Max Temperature 82 °F 78 °F 87 °F (1999)
Min Temperature 59 °F 51 °F 48 °F (1998)
Cooling Degree Days 6    
Growing Degree Days 20 (Base 50)    
Moisture  
Dew Point 30 °F    
Average Humidity 24    
Maximum Humidity 45    
Minimum Humidity 13    
Precipitation  
Precipitation 0.00 in - - ()
Sea Level Pressure  
Sea Level Pressure 30.07 in    
Wind  
Wind Speed 5 mph ()    
Max Wind Speed 18 mph    
Max Gust Speed -    
Visibility 11.8 miles    
Events      
Averages and records for this station are not official NWS values.
T = Trace of Precipitation, MM = Missing Value Source: Averaged Metar Reports

Daily Weather History Graph

Daily Weather History Graph

Search for Another Location

Airport or City:

Trip Planner

Search our weather history database for the weather conditions in past years. The results will help you decide how hot, cold, wet, or windy it might be!

Date:

Astronomy

Apr. 09, 2013 Rise Set
Actual Time 7:23 AM CDT 7:52 PM CDT
Civil Twilight 7:01 AM CDT 8:14 PM CDT
Nautical Twilight 6:35 AM CDT 8:40 PM CDT
Astronomical Twilight 6:08 AM CDT 9:07 PM CDT
Moon 6:43 AM CDT (4/9) 7:28 PM CDT (4/9)
Length of Visible Light 13h 13m
Length of Day
12h 29m
Waning Crescent, 1% of the Moon is Illuminated
Apr 9
Waning Crescent
Apr 10
New
Apr 18
First Quarter
Apr 25
Full
May 2
Last Quarter

Hourly Weather History & Observations

Time (CDT) Temp. Dew Point Humidity Pressure Visibility Wind Dir Wind Speed Gust Speed Precip Events Conditions
12:44 AM 66.2 °F 33.8 °F 30% 29.63 in 12.0 mi ESE 3.5 mph - N/A   Scattered Clouds
1:48 AM 64.4 °F 33.8 °F 32% 30.22 in 12.0 mi Calm Calm - N/A   Scattered Clouds
2:48 AM 64.4 °F 32.0 °F 30% 30.21 in 12.0 mi SSE 3.5 mph - N/A   Mostly Cloudy
3:47 AM 62.6 °F 32.0 °F 32% 29.58 in 15.0 mi SW 3.5 mph - N/A   Scattered Clouds
4:45 AM 60.8 °F 32.0 °F 34% 30.19 in 15.0 mi SE 4.6 mph - N/A   Partly Cloudy
5:45 AM 59.0 °F 32.0 °F 36% 30.20 in 15.0 mi Calm Calm - N/A   Partly Cloudy
6:45 AM 60.8 °F 33.8 °F 36% 29.66 in 15.0 mi South 4.6 mph - N/A   Clear
7:22 AM 59.0 °F 37.4 °F 45% 30.23 in 15.0 mi SSE 6.9 mph - N/A   Clear
7:42 AM 60.8 °F 35.6 °F 39% 30.23 in 15.0 mi SSE 4.6 mph - N/A   Clear
8:20 AM 62.6 °F 35.6 °F 37% 30.24 in 15.0 mi South 4.6 mph - N/A   Clear
8:46 AM 64.4 °F 33.8 °F 32% 30.24 in 15.0 mi SSE 3.5 mph - N/A   Partly Cloudy
9:17 AM 68.0 °F 32.0 °F 26% 30.25 in 12.0 mi SSE 4.6 mph - N/A   Partly Cloudy
9:20 AM 68.0 °F 32.0 °F 26% 30.25 in 12.0 mi SSE 4.6 mph - N/A   Partly Cloudy
9:43 AM 69.8 °F 30.2 °F 23% 29.62 in 12.0 mi East 3.5 mph - N/A   Clear
10:24 AM 71.6 °F 30.2 °F 22% 30.25 in 12.0 mi Calm Calm - N/A   Partly Cloudy
10:46 AM 73.4 °F 30.2 °F 20% 30.25 in 12.0 mi SSW 5.8 mph - N/A   Scattered Clouds
11:46 AM 77.0 °F 24.8 °F 14% 30.24 in 12.0 mi Calm Calm - N/A   Mostly Cloudy
11:48 AM 77.0 °F 24.8 °F 14% 30.24 in 12.0 mi Calm Calm - N/A   Mostly Cloudy
12:43 PM 78.8 °F 28.4 °F 16% 30.22 in 12.0 mi SSE 5.8 mph - N/A   Scattered Clouds
1:54 PM 80.6 °F 28.4 °F 15% 30.17 in 12.0 mi ESE 6.9 mph - N/A   Mostly Cloudy
2:46 PM 80.6 °F 28.4 °F 15% 30.15 in 7.0 mi East 16.1 mph - N/A   Mostly Cloudy
3:50 PM 82.4 °F 26.6 °F 13% 29.49 in 7.0 mi East 15.0 mph - N/A   Mostly Cloudy
4:50 PM 80.6 °F 26.6 °F 14% 30.11 in 7.0 mi SSE 15.0 mph - N/A   Mostly Cloudy
5:47 PM 78.8 °F 30.2 °F 17% 30.11 in 8.0 mi SSE 16.1 mph - N/A   Mostly Cloudy
6:48 PM 75.2 °F 32.0 °F 21% 30.12 in 8.0 mi SSE 17.3 mph - N/A   Mostly Cloudy
6:51 PM 75.2 °F 32.0 °F 21% 29.56 in 8.0 mi SSE 18.4 mph - N/A   Mostly Cloudy
7:46 PM 73.4 °F 32.0 °F 22% 30.15 in 10.0 mi SSE 11.5 mph - N/A   Mostly Cloudy
8:44 PM 69.8 °F 28.4 °F 21% 30.17 in 12.0 mi SSE 12.7 mph - N/A   Mostly Cloudy
8:47 PM 69.8 °F 28.4 °F 21% 30.17 in 12.0 mi SSE 12.7 mph - N/A   Mostly Cloudy
9:46 PM 69.8 °F 26.6 °F 20% 29.62 in 12.0 mi SE 9.2 mph - N/A   Mostly Cloudy
10:50 PM 68.0 °F 24.8 °F 20% 30.22 in 12.0 mi SE 9.2 mph - N/A   Overcast
11:50 PM 66.2 °F 23.0 °F 19% 30.23 in 12.0 mi ESE 9.2 mph - N/A   Mostly Cloudy